sat.trackr.live / text

‹ back to catalog

LEMUR-2-JULIA-JOEL

NORAD 68476 · 2026-067BN

PAYLOAD ACTIVE UNKNOWN

§ Identity

Operator
Country
LUXE
Launch date
2026-03-30
Launch site
AFWTR
Launch vehicle
Mass (kg)
RCS (m²)

External: N2YO · Heavens-Above · Gunter

§ Orbital elements

Epoch: 2026-05-25T03:38:05.908128Z

Period
96.48 min
Inclination
97.7544°
Eccentricity
0.0002446
Mean motion
14.92540289 rev/d
Perigee alt
588.3 km
Apogee alt
591.7 km
Semi-major
6,968.2 km
B*
3.5401e-4
RAAN
103.7956°
Arg perigee
26.7768°
Mean anomaly
333.3577°
Rev number
829

§ Raw data

LEMUR-2-JULIA-JOEL1 68476U 26067BN  26145.15145727  .00003582  00000+0  35401-3 0  99952 68476  97.7544 103.7956 0002446  26.7768 333.3577 14.92540289  8296

JSON: /api/v1/satellites/68476 · /tle

For live sub-satellite position, see the globe view (requires WebGL).

§ Visibility from observer

Set your observer location to see the next 7 days of passes ≥ 10°. The values pass through the URL so the page stays shareable.

No JS? Fill the form by hand. The geolocation button needs JavaScript.